Starlink 5450

operational
NORAD ID: 54778 Int'l Des: 2022-175 Owner: SPXS Country: US Constellation: starlink
LEOCIRCULAR

About Starlink 5450

Description loading...

Live Position

Loading 3D Globe...

Upcoming Passes

Altitude History

Altitude vs Time

uPlot chart will show altitude changes over time

Two-Line Element Set

1 54778U 22175W 25256.86198625 .00000768 00000-0 66317-4 0 9991
2 54778 53.2164 102.9974 0001242 104.0840 256.0291 15.08850156153432
Epoch: Sep 13, 2025 • Age: 38 hours

Current Status

Altitude 540.4 km
Velocity 7.60 km/s
Sub-Earth Point 23.78°N, 44.31°W
Launch Date Dec 17, 2022
Age 2.7 years
Type internet

Technical Details

Classification Payload
Mass 305.00 kg
Dry Mass 290.00 kg
Total Mass 305.00 kg
Length 0.20 m
Diameter 2.80 m
Span 9.00 m
Shape Box + pan
Manufacturer SPXS
Bus Type Starlink
Phase Status In Orbit
Owner/State SPXS/US

Large Constellations

Loading constellations...